Hourly Data Report for April 27, 2012

HALIFAX STANFIELD INT'L A
NOVA SCOTIA

44°52'48.060" N
63°30'00.050" W
145.40 m
8202250
71395
YHZ

Download Data

Hourly Data (April 2012)
Hourly Data Report for April 27, 2012
TIME
LST
Temp Definition
°C
Dew Point Definition
°C
Rel Hum Definition
%
Precip. Amount Definition
mm

Wind Dir Definition
10's deg

Wind Spd Definition
km/h
Visibility Definition
km
Stn Press Definition
kPa
Hmdx Definition


Wind Chill Definition


Weather Definition


00:00 3.7 3.1 96   16 13 16.1 99.48     Mainly Clear
01:00 3.3 2.8 97   16 20 19.3 99.38     Mainly Clear
02:00 3.7 3.2 97   14 19 19.3 99.30     Cloudy
03:00 4.4 3.8 96   13 17 24.1 99.23     Cloudy
04:00 4.9 3.0 87   13 20 24.1 99.15     Cloudy
05:00 5.7 5.0 95   13 19 16.1 99.00     Rain
06:00 6.7 6.5 99   12 26 6.4 98.79     Rain, Fog
07:00 7.5 7.2 98   11 39 3.2 98.42     Moderate Rain, Fog
08:00 9.0 8.9 99   14 44 3.2 98.03     Heavy Rain, Fog
09:00 10.0 9.8 99   15 43 2.4 97.79     Heavy Rain, Fog
10:00 10.8 10.8 100   16 54 2.0 97.67     Rain, Fog
11:00 10.7 10.7 100   18 39 1.0 97.59     Drizzle, Fog
12:00 10.0 10.0 100   20 43 1.0 97.56     Drizzle, Fog
13:00 11.1 11.0 99   21 33 16.1 97.64     Cloudy
14:00 13.3 12.3 94   20 35 24.1 97.67     Cloudy
15:00 11.0 10.0 94   20 39 9.7 97.63     Fog
16:00 10.4 9.6 95   20 37 24.1 97.61     Cloudy
17:00 9.0 8.2 95   20 44 24.1 97.68     Cloudy
18:00 8.4 7.2 92   21 35 24.1 97.72     Mostly Cloudy
19:00 8.1 5.1 81   24 35 24.1 97.83     Mostly Cloudy
20:00 7.4 4.9 84   23 33 24.1 97.96     Cloudy
21:00 6.7 4.8 88   24 28 24.1 98.03     Rain Showers
22:00 6.1 3.4 83   25 32 16.1 98.12     Rain Showers
23:00 5.5 2.3 80   25 26 24.1 98.20     Cloudy

Notes on Data Quality.

Legend

  • E = Estimated
  • M = Missing
  • NA = Not Available*
  • [empty] = Indicates an unobserved value
Date modified: